TimeCST,TemperatureF,Dew PointF,Humidity,Sea Level PressureIn,VisibilityMPH,Wind Direction,Wind SpeedMPH,Gust SpeedMPH,PrecipitationIn,Events,Conditions,WindDirDegrees,DateUTC
12:15 AM,30.2,26.6,86,29.60,10.0,West,13.8,21.9,N/A,Snow,Light Snow,270,2012-11-23 06:15:00
12:35 AM,28.4,26.6,93,29.61,1.5,West,13.8,25.3,N/A,Snow,Light Snow,270,2012-11-23 06:35:00
12:55 AM,28.4,26.6,93,29.60,4.0,West,8.1,-,N/A,Snow,Light Snow,260,2012-11-23 06:55:00
1:15 AM,28.4,26.6,93,29.60,1.5,West,13.8,23.0,N/A,Snow,Light Snow,260,2012-11-23 07:15:00
1:35 AM,28.4,24.8,86,29.60,5.0,West,12.7,20.7,N/A,Snow,Light Snow,260,2012-11-23 07:35:00
1:55 AM,28.4,23.0,80,29.60,7.0,WSW,10.4,21.9,N/A,Snow,Light Snow,250,2012-11-23 07:55:00
2:15 AM,26.6,23.0,86,29.60,4.0,WSW,11.5,18.4,N/A,Snow,Light Snow,250,2012-11-23 08:15:00
2:55 AM,26.6,23.0,86,29.60,4.0,West,11.5,23.0,N/A,Snow,Light Snow,270,2012-11-23 08:55:00
3:15 AM,26.6,23.0,86,29.61,5.0,West,12.7,19.6,N/A,Snow,Light Snow,270,2012-11-23 09:15:00
3:35 AM,26.6,24.8,93,29.61,2.5,West,11.5,17.3,N/A,Snow,Light Snow,280,2012-11-23 09:35:00
3:55 AM,28.4,24.8,86,29.62,3.0,West,11.5,16.1,N/A,Snow,Light Snow,280,2012-11-23 09:55:00
4:15 AM,28.4,26.6,93,29.63,2.0,WNW,10.4,17.3,N/A,Snow,Light Snow,300,2012-11-23 10:15:00
4:55 AM,28.4,26.6,93,29.65,1.8,NW,11.5,17.3,N/A,Snow,Light Snow,320,2012-11-23 10:55:00
5:15 AM,28.4,26.6,93,29.66,1.8,NNW,16.1,21.9,N/A,Snow,Light Snow,330,2012-11-23 11:15:00
5:35 AM,28.4,23.0,80,29.68,2.0,NNW,18.4,28.8,N/A,Snow,Light Snow,330,2012-11-23 11:35:00
5:55 AM,26.6,21.2,80,29.69,4.0,NNW,13.8,27.6,N/A,Snow,Light Snow,340,2012-11-23 11:55:00
6:15 AM,26.6,21.2,80,29.70,4.0,NNW,17.3,27.6,N/A,Snow,Light Snow,340,2012-11-23 12:15:00
6:35 AM,26.6,21.2,80,29.72,1.8,NW,11.5,21.9,N/A,Snow,Light Snow,320,2012-11-23 12:35:00
6:55 AM,24.8,21.2,86,29.74,1.5,NNW,13.8,24.2,N/A,Snow,Light Snow,330,2012-11-23 12:55:00
7:15 AM,24.8,21.2,86,29.75,1.2,NNW,17.3,23.0,N/A,Snow,Light Snow,340,2012-11-23 13:15:00
7:35 AM,24.8,21.2,86,29.76,1.2,NW,11.5,19.6,N/A,Snow,Light Snow,320,2012-11-23 13:35:00
7:55 AM,24.8,21.2,86,29.77,1.0,NNW,13.8,19.6,N/A,Snow,Light Snow,330,2012-11-23 13:55:00
8:15 AM,24.8,21.2,86,29.79,1.2,NW,12.7,25.3,N/A,Snow,Light Snow,320,2012-11-23 14:15:00
8:35 AM,24.8,21.2,86,29.80,0.8,NW,15.0,21.9,N/A,Snow,Light Snow,320,2012-11-23 14:35:00
8:55 AM,24.8,21.2,86,29.81,1.0,NNW,13.8,27.6,N/A,Snow,Light Snow,330,2012-11-23 14:55:00
9:15 AM,24.8,21.2,86,29.82,1.0,NNW,16.1,26.5,N/A,Snow,Light Snow,330,2012-11-23 15:15:00
9:35 AM,24.8,21.2,86,29.84,1.0,NNW,13.8,28.8,N/A,Snow,Light Snow,330,2012-11-23 15:35:00
9:55 AM,24.8,21.2,86,29.85,1.0,NNW,15.0,32.2,N/A,Snow,Light Snow,330,2012-11-23 15:55:00
10:15 AM,26.6,21.2,80,29.87,0.8,NW,10.4,21.9,N/A,Snow,Light Snow,320,2012-11-23 16:15:00
10:35 AM,26.6,21.2,80,29.88,1.0,NW,15.0,21.9,N/A,Snow,Light Snow,320,2012-11-23 16:35:00
11:15 AM,24.8,21.2,86,29.91,1.0,WNW,10.4,32.2,N/A,Snow,Light Snow,300,2012-11-23 17:15:00
11:35 AM,23.0,19.4,86,29.92,1.0,NW,17.3,26.5,N/A,Snow,Light Snow,310,2012-11-23 17:35:00
12:15 PM,23.0,17.6,80,29.94,2.0,NNW,20.7,32.2,N/A,Snow,Light Snow,330,2012-11-23 18:15:00
12:35 PM,23.0,17.6,80,29.96,2.5,NNW,23.0,39.1,N/A,Snow,Light Snow,330,2012-11-23 18:35:00
12:55 PM,23.0,19.4,86,29.96,5.0,NNW,15.0,26.5,N/A,Snow,Light Snow,330,2012-11-23 18:55:00
1:15 PM,23.0,19.4,86,29.98,7.0,NNW,20.7,26.5,N/A,Snow,Light Snow,340,2012-11-23 19:15:00
1:35 PM,23.0,19.4,86,29.98,2.5,NNW,17.3,26.5,N/A,Snow,Light Snow,330,2012-11-23 19:35:00
1:55 PM,23.0,19.4,86,29.99,1.5,NW,12.7,25.3,N/A,Snow,Light Snow,310,2012-11-23 19:55:00
2:15 PM,23.0,19.4,86,30.00,1.5,NW,13.8,23.0,N/A,Snow,Light Snow,320,2012-11-23 20:15:00
2:35 PM,23.0,19.4,86,30.01,1.8,NW,13.8,27.6,N/A,Snow,Light Snow,320,2012-11-23 20:35:00
2:55 PM,23.0,19.4,86,30.03,2.5,NW,18.4,32.2,N/A,Snow,Light Snow,310,2012-11-23 20:55:00
3:15 PM,23.0,19.4,86,30.04,2.5,NW,17.3,27.6,N/A,Snow,Light Snow,310,2012-11-23 21:15:00
3:35 PM,23.0,19.4,86,30.05,3.0,WNW,15.0,26.5,N/A,Snow,Light Snow,300,2012-11-23 21:35:00
3:55 PM,23.0,19.4,86,30.06,2.0,NW,15.0,23.0,N/A,Snow,Light Snow,320,2012-11-23 21:55:00
4:15 PM,23.0,19.4,86,30.06,2.5,NW,17.3,25.3,N/A,Snow,Light Snow,310,2012-11-23 22:15:00
4:35 PM,23.0,17.6,80,30.07,5.0,NW,13.8,27.6,N/A,Snow,Light Snow,310,2012-11-23 22:35:00
4:55 PM,23.0,19.4,86,30.07,7.0,NW,13.8,23.0,N/A,Snow,Light Snow,310,2012-11-23 22:55:00
5:15 PM,23.0,19.4,86,30.08,5.0,NW,12.7,24.2,N/A,Snow,Light Snow,310,2012-11-23 23:15:00
5:35 PM,23.0,19.4,86,30.09,7.0,NW,11.5,23.0,N/A,Snow,Light Snow,320,2012-11-23 23:35:00
5:55 PM,23.0,19.4,86,30.09,5.0,NW,11.5,25.3,N/A,Snow,Light Snow,320,2012-11-23 23:55:00
6:15 PM,23.0,19.4,86,30.10,7.0,NW,9.2,-,N/A,Snow,Light Snow,320,2012-11-24 00:15:00
6:35 PM,23.0,19.4,86,30.10,5.0,NW,15.0,23.0,N/A,Snow,Light Snow,310,2012-11-24 00:35:00
6:55 PM,23.0,19.4,86,30.10,5.0,NW,12.7,20.7,N/A,Snow,Light Snow,320,2012-11-24 00:55:00
7:15 PM,23.0,19.4,86,30.11,7.0,NW,15.0,20.7,N/A,Snow,Light Snow,320,2012-11-24 01:15:00
7:35 PM,23.0,19.4,86,30.11,5.0,NW,10.4,20.7,N/A,Snow,Light Snow,310,2012-11-24 01:35:00
7:55 PM,23.0,17.6,80,30.11,7.0,NW,12.7,21.9,N/A,Snow,Light Snow,310,2012-11-24 01:55:00
8:15 PM,23.0,17.6,80,30.12,7.0,NW,16.1,21.9,N/A,Snow,Light Snow,310,2012-11-24 02:15:00
8:55 PM,21.2,17.6,86,30.11,7.0,NW,6.9,16.1,N/A,Snow,Light Snow,320,2012-11-24 02:55:00
9:15 PM,21.2,17.6,86,30.11,10.0,NW,13.8,19.6,N/A,Snow,Light Snow,320,2012-11-24 03:15:00
9:35 PM,21.2,17.6,86,30.11,10.0,NW,12.7,17.3,N/A,,Overcast,320,2012-11-24 03:35:00
9:55 PM,21.2,17.6,86,30.11,10.0,NNW,11.5,18.4,N/A,Snow,Light Snow,330,2012-11-24 03:55:00
10:15 PM,21.2,17.6,86,30.12,10.0,NW,9.2,18.4,N/A,Snow,Light Snow,320,2012-11-24 04:15:00
10:35 PM,21.2,15.8,80,30.12,10.0,NNW,11.5,21.9,N/A,Snow,Light Snow,330,2012-11-24 04:35:00
11:15 PM,21.2,17.6,86,30.12,7.0,NNW,15.0,18.4,N/A,Snow,Light Snow,340,2012-11-24 05:15:00
11:35 PM,21.2,17.6,86,30.12,5.0,NW,9.2,-,N/A,Snow,Light Snow,320,2012-11-24 05:35:00
11:55 PM,21.2,17.6,86,30.13,7.0,NNW,11.5,17.3,N/A,Snow,Light Snow,330,2012-11-24 05:55:00